Location: Black Swamp Observatory
(41.3920°N, 84.1250°W)
Time: 12:59:11
(UTC-04:00)

Vanguard 2 - Pass Details

Date: 31 January 2022
Orbit: 552 x 2935 km, 32.9° (Epoch: 24 May)

Event Time Altitude Azimuth Distance (km) Brightness Sun altitude
Rises 19:44:44 0° 242° (WSW) 3,388 12.0 -21.4°
Reaches altitude 10° 19:46:56 10° 235° (SW) 2,664 11.1 -21.8°
Enters shadow 19:56:40 31° 119° (ESE) 2,401 9.5 -23.6°
Exits shadow 20:35:31 -42° 85° (E) 12,292 13.5 -30.9°
